This is the latest recevied weather packets stored in our database for station/object DB0ASF-4. If no packets are shown the sender has not sent any weather packets the latest 10 day(s).
| Time | Temp. | Humidity | Pressure | Rain* | Wind** | Luminosity | Snow |
|---|---|---|---|---|---|---|---|
| 1777488556 | 13.89° C | 33% | 1030.1 hPa | 0 mm | - | - | - |
| 1777487956 | 13.89° C | 32% | 1029.9 hPa | 0 mm | - | - | - |
| 1777487356 | 14.44° C | 32% | 1029.9 hPa | 0 mm | - | - | - |
| 1777486756 | 15° C | 33% | 1029.5 hPa | 0 mm | - | - | - |
| 1777486156 | 15° C | 33% | 1029.5 hPa | 0 mm | - | - | - |
| 1777485556 | 15.56° C | 33% | 1029.3 hPa | 0 mm | - | - | - |
| 1777484956 | 15.56° C | 32% | 1029.1 hPa | 0 mm | - | - | - |
| 1777484355 | 16.11° C | 32% | 1029 hPa | 0 mm | - | - | - |
| 1777483756 | 16.67° C | 32% | 1028.9 hPa | 0 mm | - | - | - |
| 1777483155 | 16.67° C | 30% | 1028.8 hPa | 0 mm | - | - | - |
| 1777482555 | 17.22° C | 31% | 1028.6 hPa | 0 mm | - | - | - |
| 1777481956 | 17.22° C | 30% | 1028.6 hPa | 0 mm | - | - | - |
| 1777481356 | 17.78° C | 29% | 1028.6 hPa | 0 mm | - | - | - |
| 1777480756 | 17.78° C | 29% | 1028.5 hPa | 0 mm | - | - | - |
| 1777480156 | 17.78° C | 29% | 1028.4 hPa | 0 mm | - | - | - |
| 1777479555 | 18.33° C | 28% | 1028.4 hPa | 0 mm | - | - | - |
| 1777478955 | 18.33° C | 28% | 1028.3 hPa | 0 mm | - | - | - |
| 1777478355 | 18.89° C | 27% | 1028.3 hPa | 0 mm | - | - | - |
| 1777477756 | 18.89° C | 27% | 1028.1 hPa | 0 mm | - | - | - |
| 1777477156 | 18.89° C | 26% | 1028 hPa | 0 mm | - | - | - |
| 1777476555 | 18.89° C | 25% | 1028.3 hPa | 0 mm | - | - | - |
| 1777475955 | 19.44° C | 23% | 1028.3 hPa | 0 mm | - | - | - |
| 1777475356 | 20° C | 21% | 1028.3 hPa | 0 mm | - | - | - |
| 1777474755 | 20.56° C | 21% | 1028.4 hPa | 0 mm | - | - | - |
| 1777474156 | 22.22° C | 19% | 1028.4 hPa | 0 mm | - | - | - |
* Rain latest hour (hover to see other rain measurements)
** Current wind speed in m/s (hover to see current wind gust speed)